Year,Month,Day,Hour,Minute,Value (Times are PST for temperature in C)
2016,06,27,00,00,17.30
2016,06,27,00,01,17.30
2016,06,27,00,02,17.30
2016,06,27,00,03,17.40
2016,06,27,00,04,17.40
2016,06,27,00,05,17.40
2016,06,27,00,06,17.30
2016,06,27,00,07,17.30
2016,06,27,00,08,17.30
2016,06,27,00,09,17.30
2016,06,27,00,10,17.30
2016,06,27,00,11,17.30
2016,06,27,00,12,17.30
2016,06,27,00,13,17.30
2016,06,27,00,14,17.30
2016,06,27,00,15,17.30
2016,06,27,00,16,17.30
2016,06,27,00,17,17.30
2016,06,27,00,18,17.20
2016,06,27,00,19,17.20
2016,06,27,00,20,17.20
2016,06,27,00,21,17.10
2016,06,27,00,22,17.10
2016,06,27,00,23,17.10
2016,06,27,00,24,17.00
2016,06,27,00,25,16.90
2016,06,27,00,26,16.90
2016,06,27,00,27,16.80
2016,06,27,00,28,16.80
2016,06,27,00,29,16.80
2016,06,27,00,30,16.80
2016,06,27,00,31,16.70
2016,06,27,00,32,16.70
2016,06,27,00,33,16.70
2016,06,27,00,34,16.70
2016,06,27,00,35,16.70
2016,06,27,00,36,16.60
2016,06,27,00,37,16.60
2016,06,27,00,38,16.50
2016,06,27,00,39,16.40
2016,06,27,00,40,16.40
2016,06,27,00,41,16.40
2016,06,27,00,42,16.30
2016,06,27,00,43,16.30
2016,06,27,00,44,16.30
2016,06,27,00,45,16.30
2016,06,27,00,46,16.20
2016,06,27,00,47,16.20
2016,06,27,00,48,16.20
2016,06,27,00,49,16.10
2016,06,27,00,50,16.10
2016,06,27,00,51,16.10
2016,06,27,00,52,16.00
2016,06,27,00,53,15.90
2016,06,27,00,54,15.90
2016,06,27,00,55,15.90
2016,06,27,00,56,15.90
2016,06,27,00,57,15.80
2016,06,27,00,58,15.80
2016,06,27,00,59,15.80
2016,06,27,01,00,15.70
2016,06,27,01,01,15.70
2016,06,27,01,02,15.70
2016,06,27,01,03,15.70
2016,06,27,01,04,15.70
2016,06,27,01,05,15.60
2016,06,27,01,06,15.60
2016,06,27,01,07,15.60
2016,06,27,01,08,15.60
2016,06,27,01,09,15.60
2016,06,27,01,10,15.50
2016,06,27,01,11,15.50
2016,06,27,01,12,15.50
2016,06,27,01,13,15.40
2016,06,27,01,14,15.40
2016,06,27,01,15,15.40
2016,06,27,01,16,15.40
2016,06,27,01,17,15.30
2016,06,27,01,18,15.30
2016,06,27,01,19,15.30
2016,06,27,01,20,15.30
2016,06,27,01,21,15.30
2016,06,27,01,22,15.20
2016,06,27,01,23,15.20
2016,06,27,01,24,15.20
2016,06,27,01,25,15.20
2016,06,27,01,26,15.20
2016,06,27,01,27,15.20
2016,06,27,01,28,15.20
2016,06,27,01,29,15.20
2016,06,27,01,30,15.20
2016,06,27,01,31,15.20
2016,06,27,01,32,15.20
2016,06,27,01,33,15.20
2016,06,27,01,34,15.20
2016,06,27,01,35,15.20
2016,06,27,01,36,15.10
2016,06,27,01,37,15.10
2016,06,27,01,38,15.10
2016,06,27,01,39,15.10
2016,06,27,01,40,15.10
2016,06,27,01,41,15.10
2016,06,27,01,42,15.10
2016,06,27,01,43,15.10
2016,06,27,01,44,15.00
2016,06,27,01,45,15.00
2016,06,27,01,46,15.00
2016,06,27,01,47,15.00
2016,06,27,01,48,15.00
2016,06,27,01,49,14.90
2016,06,27,01,50,14.90
2016,06,27,01,51,14.90
2016,06,27,01,52,14.90
2016,06,27,01,53,14.90
2016,06,27,01,54,14.90
2016,06,27,01,55,14.90
2016,06,27,01,56,14.90
2016,06,27,01,57,14.80
2016,06,27,01,58,14.80
2016,06,27,01,59,14.80
2016,06,27,02,00,14.80
2016,06,27,02,01,14.80
2016,06,27,02,02,14.70
2016,06,27,02,03,14.70
2016,06,27,02,04,14.70
2016,06,27,02,05,14.70
2016,06,27,02,06,14.70
2016,06,27,02,07,14.70
2016,06,27,02,08,14.60
2016,06,27,02,09,14.60
2016,06,27,02,10,14.60
2016,06,27,02,11,14.60
2016,06,27,02,12,14.60
2016,06,27,02,13,14.50
2016,06,27,02,14,14.50
2016,06,27,02,15,14.50
2016,06,27,02,16,14.50
2016,06,27,02,17,14.50
2016,06,27,02,18,14.50
2016,06,27,02,19,14.40
2016,06,27,02,20,14.40
2016,06,27,02,21,14.40
2016,06,27,02,22,14.40
2016,06,27,02,23,14.40
2016,06,27,02,24,14.40
2016,06,27,02,25,14.30
2016,06,27,02,26,14.30
2016,06,27,02,27,14.30
2016,06,27,02,28,14.30
2016,06,27,02,29,14.30
2016,06,27,02,30,14.30
2016,06,27,02,31,14.30
2016,06,27,02,32,14.30
2016,06,27,02,33,14.30
2016,06,27,02,34,14.20
2016,06,27,02,35,14.20
2016,06,27,02,36,14.20
2016,06,27,02,37,14.20
2016,06,27,02,38,14.20
2016,06,27,02,39,14.20
2016,06,27,02,40,14.20
2016,06,27,02,41,14.20
2016,06,27,02,42,14.10
2016,06,27,02,43,14.10
2016,06,27,02,44,14.10
2016,06,27,02,45,14.00
2016,06,27,02,46,14.00
2016,06,27,02,47,14.00
2016,06,27,02,48,13.90
2016,06,27,02,49,13.90
2016,06,27,02,50,13.90
2016,06,27,02,51,13.90
2016,06,27,02,52,13.80
2016,06,27,02,53,13.80
2016,06,27,02,54,13.80
2016,06,27,02,55,13.80
2016,06,27,02,56,13.80
2016,06,27,02,57,13.80
2016,06,27,02,58,13.80
2016,06,27,02,59,13.80
2016,06,27,03,00,13.80
2016,06,27,03,01,13.80
2016,06,27,03,02,13.80
2016,06,27,03,03,13.80
2016,06,27,03,04,13.80
2016,06,27,03,05,13.70
2016,06,27,03,06,13.70
2016,06,27,03,07,13.70
2016,06,27,03,08,13.70
2016,06,27,03,09,13.70
2016,06,27,03,10,13.70
2016,06,27,03,11,13.70
2016,06,27,03,12,13.70
2016,06,27,03,13,13.70
2016,06,27,03,14,13.70
2016,06,27,03,15,13.70
2016,06,27,03,16,13.60
2016,06,27,03,17,13.60
2016,06,27,03,18,13.60
2016,06,27,03,19,13.60
2016,06,27,03,20,13.60
2016,06,27,03,21,13.60
2016,06,27,03,22,13.60
2016,06,27,03,23,13.60
2016,06,27,03,24,13.60
2016,06,27,03,25,13.50
2016,06,27,03,26,13.50
2016,06,27,03,27,13.50
2016,06,27,03,28,13.50
2016,06,27,03,29,13.40
2016,06,27,03,30,13.40
2016,06,27,03,31,13.40
2016,06,27,03,32,13.40
2016,06,27,03,33,13.40
2016,06,27,03,34,13.40
2016,06,27,03,35,13.40
2016,06,27,03,36,13.40
2016,06,27,03,37,13.40
2016,06,27,03,38,13.30
2016,06,27,03,39,13.40
2016,06,27,03,40,13.30
2016,06,27,03,41,13.30
2016,06,27,03,42,13.30
2016,06,27,03,43,13.30
2016,06,27,03,44,13.30
2016,06,27,03,45,13.30
2016,06,27,03,46,13.30
2016,06,27,03,47,13.30
2016,06,27,03,48,13.30
2016,06,27,03,49,13.30
2016,06,27,03,50,13.30
2016,06,27,03,51,13.20
2016,06,27,03,52,13.20
2016,06,27,03,53,13.20
2016,06,27,03,54,13.20
2016,06,27,03,55,13.20
2016,06,27,03,56,13.20
2016,06,27,03,57,13.20
2016,06,27,03,58,13.10
2016,06,27,03,59,13.10
2016,06,27,04,00,13.10
2016,06,27,04,01,13.10
2016,06,27,04,02,13.10
2016,06,27,04,03,13.10
2016,06,27,04,04,13.10
2016,06,27,04,05,13.10
2016,06,27,04,06,13.10
2016,06,27,04,07,13.10
2016,06,27,04,08,13.00
2016,06,27,04,09,13.00
2016,06,27,04,10,13.00
2016,06,27,04,11,13.00
2016,06,27,04,12,13.00
2016,06,27,04,13,12.90
2016,06,27,04,14,12.90
2016,06,27,04,15,12.90
2016,06,27,04,16,12.90
2016,06,27,04,17,12.90
2016,06,27,04,18,12.90
2016,06,27,04,19,12.90
2016,06,27,04,20,12.90
2016,06,27,04,21,12.90
2016,06,27,04,22,12.90
2016,06,27,04,23,12.90
2016,06,27,04,24,12.90
2016,06,27,04,25,12.80
2016,06,27,04,26,12.80
2016,06,27,04,27,12.80
2016,06,27,04,28,12.80
2016,06,27,04,29,12.80
2016,06,27,04,30,12.80
2016,06,27,04,31,12.80
2016,06,27,04,32,12.80
2016,06,27,04,33,12.80
2016,06,27,04,34,12.70
2016,06,27,04,35,12.70
2016,06,27,04,36,12.70
2016,06,27,04,37,12.70
2016,06,27,04,38,12.70
2016,06,27,04,39,12.70
2016,06,27,04,40,12.70
2016,06,27,04,41,12.70
2016,06,27,04,42,12.60
2016,06,27,04,43,12.60
2016,06,27,04,44,12.60
2016,06,27,04,45,12.60
2016,06,27,04,46,12.60
2016,06,27,04,47,12.60
2016,06,27,04,48,12.60
2016,06,27,04,49,12.60
2016,06,27,04,50,12.60
2016,06,27,04,51,12.60
2016,06,27,04,52,12.60
2016,06,27,04,53,12.50
2016,06,27,04,54,12.50
2016,06,27,04,55,12.50
2016,06,27,04,56,12.40
2016,06,27,04,57,12.40
2016,06,27,04,58,12.40
2016,06,27,04,59,12.40
2016,06,27,05,00,12.40
2016,06,27,05,01,12.40
2016,06,27,05,02,12.40
2016,06,27,05,03,12.30
2016,06,27,05,04,12.30
2016,06,27,05,05,12.30
2016,06,27,05,06,12.30
2016,06,27,05,07,12.30
2016,06,27,05,08,12.30
2016,06,27,05,09,12.30
2016,06,27,05,10,12.30
2016,06,27,05,11,12.30
2016,06,27,05,12,12.30
2016,06,27,05,13,12.30
2016,06,27,05,14,12.20
2016,06,27,05,15,12.20
2016,06,27,05,16,12.20
2016,06,27,05,17,12.20
2016,06,27,05,18,12.20
2016,06,27,05,19,12.20
2016,06,27,05,20,12.20
2016,06,27,05,21,12.20
2016,06,27,05,22,12.20
2016,06,27,05,23,12.20
2016,06,27,05,24,12.20
2016,06,27,05,25,12.20
2016,06,27,05,26,12.20
2016,06,27,05,27,12.20
2016,06,27,05,28,12.20
2016,06,27,05,29,12.20
2016,06,27,05,30,12.20
2016,06,27,05,31,12.20
2016,06,27,05,32,12.20
2016,06,27,05,33,12.20
2016,06,27,05,34,12.20
2016,06,27,05,35,12.20
2016,06,27,05,36,12.20
2016,06,27,05,37,12.20
2016,06,27,05,38,12.20
2016,06,27,05,39,12.20
2016,06,27,05,40,12.20
2016,06,27,05,41,12.20
2016,06,27,05,42,12.20
2016,06,27,05,43,12.20
2016,06,27,05,44,12.20
2016,06,27,05,45,12.20
2016,06,27,05,46,12.20
2016,06,27,05,47,12.30
2016,06,27,05,48,12.30
2016,06,27,05,49,12.30
2016,06,27,05,50,12.30
2016,06,27,05,51,12.30
2016,06,27,05,52,12.30
2016,06,27,05,53,12.30
2016,06,27,05,54,12.30
2016,06,27,05,55,12.40
2016,06,27,05,56,12.40
2016,06,27,05,57,12.40
2016,06,27,05,58,12.40
2016,06,27,05,59,12.40
2016,06,27,06,00,12.40
2016,06,27,06,01,12.50
2016,06,27,06,02,12.60
2016,06,27,06,03,12.60
2016,06,27,06,04,12.60
2016,06,27,06,05,12.70
2016,06,27,06,06,12.70
2016,06,27,06,07,12.80
2016,06,27,06,08,12.80
2016,06,27,06,09,12.80
2016,06,27,06,10,12.90
2016,06,27,06,11,12.90
2016,06,27,06,12,13.00
2016,06,27,06,13,13.00
2016,06,27,06,14,13.10
2016,06,27,06,15,13.10
2016,06,27,06,16,13.20
2016,06,27,06,17,13.20
2016,06,27,06,18,13.30
2016,06,27,06,19,13.30
2016,06,27,06,20,13.30
2016,06,27,06,21,13.40
2016,06,27,06,22,13.40
2016,06,27,06,23,13.40
2016,06,27,06,24,13.50
2016,06,27,06,25,13.60
2016,06,27,06,26,13.60
2016,06,27,06,27,13.60
2016,06,27,06,28,13.70
2016,06,27,06,29,13.70
2016,06,27,06,30,13.80
2016,06,27,06,31,13.80
2016,06,27,06,32,13.80
2016,06,27,06,33,13.90
2016,06,27,06,34,13.90
2016,06,27,06,35,13.90
2016,06,27,06,36,14.00
2016,06,27,06,37,14.00
2016,06,27,06,38,14.10
2016,06,27,06,39,14.10
2016,06,27,06,40,14.10
2016,06,27,06,41,14.10
2016,06,27,06,42,14.10
2016,06,27,06,43,14.10
2016,06,27,06,44,14.00
2016,06,27,06,45,14.10
2016,06,27,06,46,14.10
2016,06,27,06,47,14.10
2016,06,27,06,48,14.20
2016,06,27,06,49,14.20
2016,06,27,06,50,14.30
2016,06,27,06,51,14.30
2016,06,27,06,52,14.40
2016,06,27,06,53,14.50
2016,06,27,06,54,14.60
2016,06,27,06,55,14.70
2016,06,27,06,56,14.70
2016,06,27,06,57,14.80
2016,06,27,06,58,14.80
2016,06,27,06,59,14.90
2016,06,27,07,00,15.00
2016,06,27,07,01,15.10
2016,06,27,07,02,15.20
2016,06,27,07,03,15.20
2016,06,27,07,04,15.30
2016,06,27,07,05,15.30
2016,06,27,07,06,15.30
2016,06,27,07,07,15.40
2016,06,27,07,08,15.40
2016,06,27,07,09,15.50
2016,06,27,07,10,15.50
2016,06,27,07,11,15.60
2016,06,27,07,12,15.60
2016,06,27,07,13,15.60
2016,06,27,07,14,15.50
2016,06,27,07,15,15.60
2016,06,27,07,16,15.60
2016,06,27,07,17,15.60
2016,06,27,07,18,15.60
2016,06,27,07,19,15.60
2016,06,27,07,20,15.60
2016,06,27,07,21,15.60
2016,06,27,07,22,15.60
2016,06,27,07,23,15.60
2016,06,27,07,24,15.50
2016,06,27,07,25,15.50
2016,06,27,07,26,15.50
2016,06,27,07,27,15.50
2016,06,27,07,28,15.50
2016,06,27,07,29,15.50
2016,06,27,07,30,15.50
2016,06,27,07,31,15.60
2016,06,27,07,32,15.50
2016,06,27,07,33,15.50
2016,06,27,07,34,15.60
2016,06,27,07,35,15.60
2016,06,27,07,36,15.60
2016,06,27,07,37,15.60
2016,06,27,07,38,15.60
2016,06,27,07,39,15.70
2016,06,27,07,40,15.70
2016,06,27,07,41,15.70
2016,06,27,07,42,15.70
2016,06,27,07,43,15.70
2016,06,27,07,44,15.70
2016,06,27,07,45,15.70
2016,06,27,07,46,15.70
2016,06,27,07,47,15.80
2016,06,27,07,48,15.80
2016,06,27,07,49,15.80
2016,06,27,07,50,15.80
2016,06,27,07,51,15.80
2016,06,27,07,52,15.90
2016,06,27,07,53,15.90
2016,06,27,07,54,15.90
2016,06,27,07,55,15.90
2016,06,27,07,56,15.90
2016,06,27,07,57,16.00
2016,06,27,07,58,15.90
2016,06,27,07,59,16.00
2016,06,27,08,00,16.00
2016,06,27,08,01,16.00
2016,06,27,08,02,16.00
2016,06,27,08,03,16.00
2016,06,27,08,04,15.90
2016,06,27,08,05,15.90
2016,06,27,08,06,15.90
2016,06,27,08,07,15.80
2016,06,27,08,08,15.80
2016,06,27,08,09,15.80
2016,06,27,08,10,15.80
2016,06,27,08,11,15.80
2016,06,27,08,12,15.80
2016,06,27,08,13,15.80
2016,06,27,08,14,15.80
2016,06,27,08,15,15.80
2016,06,27,08,16,15.80
2016,06,27,08,17,15.80
2016,06,27,08,18,15.90
2016,06,27,08,19,15.90
2016,06,27,08,20,16.00
2016,06,27,08,21,16.10
2016,06,27,08,22,16.20
2016,06,27,08,23,16.20
2016,06,27,08,24,16.30
2016,06,27,08,25,16.40
2016,06,27,08,26,16.40
2016,06,27,08,27,16.50
2016,06,27,08,28,16.60
2016,06,27,08,29,16.60
2016,06,27,08,30,16.70
2016,06,27,08,31,16.70
2016,06,27,08,32,16.70
2016,06,27,08,33,16.70
2016,06,27,08,34,16.80
2016,06,27,08,35,16.80
2016,06,27,08,36,16.80
2016,06,27,08,37,16.80
2016,06,27,08,38,16.80
2016,06,27,08,39,16.90
2016,06,27,08,40,16.90
2016,06,27,08,41,16.90
2016,06,27,08,42,17.10
2016,06,27,08,43,17.10
2016,06,27,08,44,17.10
2016,06,27,08,45,17.20
2016,06,27,08,46,17.30
2016,06,27,08,47,17.30
2016,06,27,08,48,17.40
2016,06,27,08,49,17.50
2016,06,27,08,50,17.60
2016,06,27,08,51,17.70
2016,06,27,08,52,17.80
2016,06,27,08,53,17.90
2016,06,27,08,54,18.00
2016,06,27,08,55,18.10
2016,06,27,08,56,18.20
2016,06,27,08,57,18.30
2016,06,27,08,58,18.40
2016,06,27,08,59,18.50
2016,06,27,09,00,18.60
2016,06,27,09,01,18.60
2016,06,27,09,02,18.60
2016,06,27,09,03,18.60
2016,06,27,09,04,18.50
2016,06,27,09,05,18.40
2016,06,27,09,06,18.40
2016,06,27,09,07,18.30
2016,06,27,09,08,18.30
2016,06,27,09,09,18.20
2016,06,27,09,10,18.20
2016,06,27,09,11,18.10
2016,06,27,09,12,18.10
2016,06,27,09,13,18.10
2016,06,27,09,14,18.00
2016,06,27,09,15,18.00
2016,06,27,09,16,18.00
2016,06,27,09,17,17.90
2016,06,27,09,18,17.90
2016,06,27,09,19,18.00
2016,06,27,09,20,18.00
2016,06,27,09,21,18.10
2016,06,27,09,22,18.10
2016,06,27,09,23,18.10
2016,06,27,09,24,18.20
2016,06,27,09,25,18.20
2016,06,27,09,26,18.30
2016,06,27,09,27,18.40
2016,06,27,09,28,18.40
2016,06,27,09,29,18.60
2016,06,27,09,30,18.60
2016,06,27,09,31,18.70
2016,06,27,09,32,18.70
2016,06,27,09,33,18.80
2016,06,27,09,34,18.80
2016,06,27,09,35,18.80
2016,06,27,09,36,18.80
2016,06,27,09,37,18.80
2016,06,27,09,38,18.90
2016,06,27,09,39,18.90
2016,06,27,09,40,19.00
2016,06,27,09,41,19.00
2016,06,27,09,42,19.10
2016,06,27,09,43,19.20
2016,06,27,09,44,19.30
2016,06,27,09,45,19.30
2016,06,27,09,46,19.30
2016,06,27,09,47,19.40
2016,06,27,09,48,19.40
2016,06,27,09,49,19.60
2016,06,27,09,50,19.60
2016,06,27,09,51,19.70
2016,06,27,09,52,19.70
2016,06,27,09,53,19.70
2016,06,27,09,54,19.70
2016,06,27,09,55,19.70
2016,06,27,09,56,19.70
2016,06,27,09,57,19.70
2016,06,27,09,58,19.70
2016,06,27,09,59,19.60
2016,06,27,10,00,19.60
2016,06,27,10,01,19.60
2016,06,27,10,02,19.60
2016,06,27,10,03,19.60
2016,06,27,10,04,19.70
2016,06,27,10,05,19.80
2016,06,27,10,06,19.80
2016,06,27,10,07,19.90
2016,06,27,10,08,19.90
2016,06,27,10,09,20.00
2016,06,27,10,10,20.20
2016,06,27,10,11,20.20
2016,06,27,10,12,20.30
2016,06,27,10,13,20.40
2016,06,27,10,14,20.60
2016,06,27,10,15,20.60
2016,06,27,10,16,20.70
2016,06,27,10,17,20.70
2016,06,27,10,18,20.80
2016,06,27,10,19,20.80
2016,06,27,10,20,20.90
2016,06,27,10,22,21.00
2016,06,27,10,23,21.10
2016,06,27,10,24,21.20
2016,06,27,10,25,21.30
2016,06,27,10,26,21.40
2016,06,27,10,27,21.30
2016,06,27,10,28,21.30
2016,06,27,10,29,21.40
2016,06,27,10,30,21.40
2016,06,27,10,31,21.40
2016,06,27,10,32,21.40
2016,06,27,10,33,21.40
2016,06,27,10,34,21.40
2016,06,27,10,35,21.40
2016,06,27,10,36,21.40
2016,06,27,10,37,21.40
2016,06,27,10,38,21.40
2016,06,27,10,39,21.40
2016,06,27,10,40,21.40
2016,06,27,10,41,21.40
2016,06,27,10,42,21.30
2016,06,27,10,43,21.40
2016,06,27,10,44,21.40
2016,06,27,10,45,21.60
2016,06,27,10,46,21.60
2016,06,27,10,48,21.70
2016,06,27,10,49,21.80
2016,06,27,10,50,21.80
2016,06,27,10,51,21.80
2016,06,27,10,52,21.80
2016,06,27,10,53,21.90
2016,06,27,10,54,21.90
2016,06,27,10,55,22.10
2016,06,27,10,56,22.10
2016,06,27,10,57,22.20
2016,06,27,10,58,22.20
2016,06,27,10,59,22.20
2016,06,27,11,00,22.20
2016,06,27,11,01,22.20
2016,06,27,11,02,22.30
2016,06,27,11,03,22.40
2016,06,27,11,04,22.60
2016,06,27,11,05,22.70
2016,06,27,11,06,22.80
2016,06,27,11,07,22.90
2016,06,27,11,08,22.90
2016,06,27,11,09,22.90
2016,06,27,11,10,23.00
2016,06,27,11,11,23.10
2016,06,27,11,12,23.20
2016,06,27,11,13,23.20
2016,06,27,11,14,23.20
2016,06,27,11,15,23.10
2016,06,27,11,16,23.10
2016,06,27,11,17,23.10
2016,06,27,11,18,23.10
2016,06,27,11,19,23.10
2016,06,27,11,20,23.10
2016,06,27,11,21,23.20
2016,06,27,11,22,23.40
2016,06,27,11,23,23.60
2016,06,27,11,24,23.70
2016,06,27,11,26,23.90
2016,06,27,11,27,24.10
2016,06,27,11,28,24.10
2016,06,27,11,29,24.20
2016,06,27,11,30,24.20
2016,06,27,11,31,24.10
2016,06,27,11,32,24.10
2016,06,27,11,33,24.20
2016,06,27,11,34,24.20
2016,06,27,11,35,24.30
2016,06,27,11,36,24.30
2016,06,27,11,37,24.40
2016,06,27,11,38,24.40
2016,06,27,11,39,24.60
2016,06,27,11,40,24.60
2016,06,27,11,41,24.70
2016,06,27,11,42,24.60
2016,06,27,11,43,24.60
2016,06,27,11,44,24.70
2016,06,27,11,45,24.70
2016,06,27,11,46,24.80
2016,06,27,11,47,24.80
2016,06,27,11,48,24.80
2016,06,27,11,49,24.80
2016,06,27,11,50,24.90
2016,06,27,11,51,25.00
2016,06,27,11,52,25.10
2016,06,27,11,53,25.10
2016,06,27,11,54,25.20
2016,06,27,11,55,25.30
2016,06,27,11,56,25.40
2016,06,27,11,57,25.50
2016,06,27,11,58,25.50
2016,06,27,11,59,25.60
2016,06,27,12,00,25.70
2016,06,27,12,01,25.80
2016,06,27,12,02,25.90
2016,06,27,12,03,26.00
2016,06,27,12,04,26.10
2016,06,27,12,05,26.20
2016,06,27,12,06,26.20
2016,06,27,12,07,26.30
2016,06,27,12,08,26.30
2016,06,27,12,09,26.30
2016,06,27,12,10,26.30
2016,06,27,12,11,26.30
2016,06,27,12,12,26.20
2016,06,27,12,13,26.10
2016,06,27,12,14,26.10
2016,06,27,12,15,26.00
2016,06,27,12,16,25.90
2016,06,27,12,17,26.10
2016,06,27,12,18,26.20
2016,06,27,12,19,26.30
2016,06,27,12,20,26.30
2016,06,27,12,21,26.40
2016,06,27,12,22,26.50
2016,06,27,12,23,26.60
2016,06,27,12,24,26.70
2016,06,27,12,25,26.80
2016,06,27,12,26,26.90
2016,06,27,12,27,27.10
2016,06,27,12,28,27.20
2016,06,27,12,29,27.20
2016,06,27,12,30,27.20
2016,06,27,12,31,27.10
2016,06,27,12,32,27.10
2016,06,27,12,33,27.10
2016,06,27,12,34,27.10
2016,06,27,12,35,27.20
2016,06,27,12,36,27.30
2016,06,27,12,37,27.40
2016,06,27,12,38,27.40
2016,06,27,12,39,27.60
2016,06,27,12,40,27.70
2016,06,27,12,41,27.80
2016,06,27,12,42,27.80
2016,06,27,12,43,27.90
2016,06,27,12,44,28.00
2016,06,27,12,45,28.10
2016,06,27,12,46,28.10
2016,06,27,12,47,28.10
2016,06,27,12,48,28.20
2016,06,27,12,49,28.20
2016,06,27,12,50,28.30
2016,06,27,12,51,28.30
2016,06,27,12,52,28.30
2016,06,27,12,53,28.40
2016,06,27,12,54,28.50
2016,06,27,12,55,28.60
2016,06,27,12,56,28.60
2016,06,27,12,57,28.60
2016,06,27,12,58,28.60
2016,06,27,12,59,28.50
2016,06,27,13,00,28.40
2016,06,27,13,01,28.40
2016,06,27,13,02,28.40
2016,06,27,13,03,28.50
2016,06,27,13,04,28.60
2016,06,27,13,05,28.60
2016,06,27,13,06,28.40
2016,06,27,13,07,28.30
2016,06,27,13,08,28.10
2016,06,27,13,09,27.90
2016,06,27,13,10,27.70
2016,06,27,13,11,27.60
2016,06,27,13,12,27.50
2016,06,27,13,13,27.30
2016,06,27,13,14,27.30
2016,06,27,13,15,27.30
2016,06,27,13,16,27.30
2016,06,27,13,17,27.30
2016,06,27,13,18,27.40
2016,06,27,13,19,27.60
2016,06,27,13,20,27.70
2016,06,27,13,21,27.70
2016,06,27,13,22,27.80
2016,06,27,13,23,27.90
2016,06,27,13,24,28.10
2016,06,27,13,25,28.20
2016,06,27,13,26,28.20
2016,06,27,13,27,28.20
2016,06,27,13,28,28.30
2016,06,27,13,29,28.40
2016,06,27,13,30,28.60
2016,06,27,13,31,28.80
2016,06,27,13,32,29.10
2016,06,27,13,33,29.30
2016,06,27,13,34,29.40
2016,06,27,13,35,29.60
2016,06,27,13,36,29.70
2016,06,27,13,37,29.80
2016,06,27,13,38,29.90
2016,06,27,13,39,30.00
2016,06,27,13,40,30.10
2016,06,27,13,41,30.10
2016,06,27,13,42,30.10
2016,06,27,13,43,30.10
2016,06,27,13,44,30.20
2016,06,27,13,45,30.20
2016,06,27,13,46,30.20
2016,06,27,13,47,30.20
2016,06,27,13,48,30.20
2016,06,27,13,49,30.20
2016,06,27,13,50,30.30
2016,06,27,13,51,30.30
2016,06,27,13,52,30.20
2016,06,27,13,53,30.20
2016,06,27,13,54,30.10
2016,06,27,13,55,30.10
2016,06,27,13,56,30.10
2016,06,27,13,57,30.10
2016,06,27,13,58,30.10
2016,06,27,13,59,30.00
2016,06,27,14,00,29.90
2016,06,27,14,01,30.00
2016,06,27,14,02,30.10
2016,06,27,14,03,30.10
2016,06,27,14,04,30.10
2016,06,27,14,05,29.90
2016,06,27,14,06,29.90
2016,06,27,14,07,29.90
2016,06,27,14,08,29.90
2016,06,27,14,09,29.90
2016,06,27,14,10,30.00
2016,06,27,14,11,30.10
2016,06,27,14,12,30.10
2016,06,27,14,13,30.10
2016,06,27,14,14,30.10
2016,06,27,14,15,30.10
2016,06,27,14,16,30.10
2016,06,27,14,17,30.20
2016,06,27,14,18,30.30
2016,06,27,14,19,30.30
2016,06,27,14,20,30.30
2016,06,27,14,21,30.30
2016,06,27,14,22,30.30
2016,06,27,14,23,30.30
2016,06,27,14,24,30.40
2016,06,27,14,25,30.50
2016,06,27,14,26,30.60
2016,06,27,14,27,30.60
2016,06,27,14,28,30.60
2016,06,27,14,29,30.60
2016,06,27,14,30,30.60
2016,06,27,14,31,30.60
2016,06,27,14,32,30.60
2016,06,27,14,33,30.50
2016,06,27,14,34,30.40
2016,06,27,14,35,30.40
2016,06,27,14,36,30.40
2016,06,27,14,37,30.30
2016,06,27,14,38,30.30
2016,06,27,14,39,30.30
2016,06,27,14,40,30.30
2016,06,27,14,41,30.30
2016,06,27,14,42,30.30
2016,06,27,14,43,30.30
2016,06,27,14,44,30.30
2016,06,27,14,45,30.20
2016,06,27,14,46,30.20
2016,06,27,14,47,30.20
2016,06,27,14,48,30.10
2016,06,27,14,49,30.00
2016,06,27,14,50,29.90
2016,06,27,14,51,29.80
2016,06,27,14,52,29.80
2016,06,27,14,53,29.80
2016,06,27,14,54,29.70
2016,06,27,14,55,29.70
2016,06,27,14,56,29.60
2016,06,27,14,57,29.50
2016,06,27,14,58,29.50
2016,06,27,14,59,29.40
2016,06,27,15,00,29.30
2016,06,27,15,01,29.20
2016,06,27,15,02,29.00
2016,06,27,15,03,28.90
2016,06,27,15,04,28.80
2016,06,27,15,05,28.80
2016,06,27,15,06,28.80
2016,06,27,15,07,28.80
2016,06,27,15,08,28.80
2016,06,27,15,09,28.80
2016,06,27,15,10,28.80
2016,06,27,15,11,28.80
2016,06,27,15,12,28.80
2016,06,27,15,13,28.80
2016,06,27,15,14,28.90
2016,06,27,15,15,28.90
2016,06,27,15,16,29.10
2016,06,27,15,17,29.10
2016,06,27,15,18,29.20
2016,06,27,15,19,29.30
2016,06,27,15,20,29.30
2016,06,27,15,21,29.40
2016,06,27,15,22,29.60
2016,06,27,15,23,29.70
2016,06,27,15,24,29.80
2016,06,27,15,25,29.80
2016,06,27,15,26,29.90
2016,06,27,15,27,29.90
2016,06,27,15,28,29.90
2016,06,27,15,29,29.90
2016,06,27,15,30,30.00
2016,06,27,15,31,30.10
2016,06,27,15,32,30.10
2016,06,27,15,33,30.10
2016,06,27,15,34,30.20
2016,06,27,15,35,30.20
2016,06,27,15,36,30.20
2016,06,27,15,37,30.20
2016,06,27,15,38,30.20
2016,06,27,15,39,30.20
2016,06,27,15,40,30.20
2016,06,27,15,41,30.10
2016,06,27,15,42,30.20
2016,06,27,15,43,30.20
2016,06,27,15,44,30.20
2016,06,27,15,45,30.20
2016,06,27,15,46,30.20
2016,06,27,15,47,30.20
2016,06,27,15,48,30.20
2016,06,27,15,49,30.10
2016,06,27,15,50,30.10
2016,06,27,15,51,30.20
2016,06,27,15,52,30.10
2016,06,27,15,53,30.10
2016,06,27,15,54,30.00
2016,06,27,15,55,30.00
2016,06,27,15,56,29.90
2016,06,27,15,57,29.90
2016,06,27,15,58,29.90
2016,06,27,15,59,29.90
2016,06,27,16,00,30.00
2016,06,27,16,01,30.10
2016,06,27,16,02,30.10
2016,06,27,16,03,30.10
2016,06,27,16,04,30.20
2016,06,27,16,05,30.20
2016,06,27,16,06,30.30
2016,06,27,16,07,30.40
2016,06,27,16,08,30.50
2016,06,27,16,09,30.40
2016,06,27,16,10,30.30
2016,06,27,16,11,30.30
2016,06,27,16,12,30.20
2016,06,27,16,13,30.20
2016,06,27,16,14,30.10
2016,06,27,16,15,30.00
2016,06,27,16,16,29.90
2016,06,27,16,17,29.80
2016,06,27,16,18,29.70
2016,06,27,16,19,29.60
2016,06,27,16,20,29.50
2016,06,27,16,21,29.40
2016,06,27,16,22,29.40
2016,06,27,16,23,29.30
2016,06,27,16,24,29.30
2016,06,27,16,25,29.30
2016,06,27,16,26,29.30
2016,06,27,16,27,29.30
2016,06,27,16,28,29.30
2016,06,27,16,29,29.40
2016,06,27,16,30,29.40
2016,06,27,16,31,29.40
2016,06,27,16,32,29.40
2016,06,27,16,33,29.40
2016,06,27,16,34,29.30
2016,06,27,16,35,29.30
2016,06,27,16,36,29.40
2016,06,27,16,37,29.30
2016,06,27,16,38,29.30
2016,06,27,16,39,29.30
2016,06,27,16,40,29.30
2016,06,27,16,41,29.30
2016,06,27,16,42,29.30
2016,06,27,16,43,29.20
2016,06,27,16,44,29.20
2016,06,27,16,45,29.10
2016,06,27,16,46,29.00
2016,06,27,16,47,28.90
2016,06,27,16,48,28.90
2016,06,27,16,49,28.90
2016,06,27,16,50,28.90
2016,06,27,16,51,28.90
2016,06,27,16,52,29.10
2016,06,27,16,53,29.20
2016,06,27,16,54,29.20
2016,06,27,16,55,29.30
2016,06,27,16,56,29.30
2016,06,27,16,57,29.30
2016,06,27,16,58,29.40
2016,06,27,16,59,29.40
2016,06,27,17,00,29.40
2016,06,27,17,01,29.40
2016,06,27,17,02,29.40
2016,06,27,17,03,29.40
2016,06,27,17,04,29.40
2016,06,27,17,05,29.30
2016,06,27,17,06,29.30
2016,06,27,17,07,29.30
2016,06,27,17,08,29.20
2016,06,27,17,09,29.10
2016,06,27,17,10,28.90
2016,06,27,17,11,28.80
2016,06,27,17,12,28.80
2016,06,27,17,13,28.80
2016,06,27,17,14,28.70
2016,06,27,17,15,28.70
2016,06,27,17,16,28.70
2016,06,27,17,17,28.60
2016,06,27,17,18,28.50
2016,06,27,17,19,28.40
2016,06,27,17,20,28.40
2016,06,27,17,21,28.40
2016,06,27,17,22,28.40